Location: Waco, TX
(31.5480°N, 97.1670°W)
Time: 19:29:24
(UTC-05:00)

ISS - Pass Details

Date: 12 January 2019
Orbit: 408 x 410 km, 51.6° (Epoch: 25 April)

Event Time Altitude Azimuth Distance (km) Brightness Sun altitude
Rises 05:42:41 0° 328° (NNW) 2,346 - -22.2°
Reaches altitude 10° 05:45:09 10° 346° (NNW) 1,479 - -21.7°
Exits shadow 05:47:06 19° 21° (NNE) 1,038 -1.7 -21.3°
Maximum altitude 05:47:42 20° 37° (NE) 1,006 -1.6 -21.2°
Drops below altitude 10° 05:50:14 10° 87° (E) 1,470 0.1 -20.7°
Sets 05:52:41 0° 105° (ESE) 2,326 1.7 -20.2°
